Regional Weather Roundup
Issued by NWS Raleigh/Durham, NC

Home | Current Version | Previous Version | Text Only | Print | Product List | Glossary On
Versions: 1 2 3 4 5 6 7 8 9 10 11 12 13 14 15 16 17 18 19 20 21 22 23 24 25 26 27 28 29 30 31 32 33 34 35 36 37 38 39 40 41 42 43 44 45 46 47 48 49 50
000
ASUS42 KRAH 282210
RWRRAH
NORTH CAROLINA WEATHER ROUNDUP
NATIONAL WEATHER SERVICE RALEIGH NC
600 PM EDT TUE JUL 28 2015

NOTE: "FAIR" INDICATES FEW OR NO CLOUDS BELOW 12,000 FEET WITH NO
SIGNIFICANT WEATHER AND/OR OBSTRUCTIONS TO VISIBILITY.

NCZ001-053-055-056-065-067-282300-
WESTERN NORTH CAROLINA

CITY           SKY/WX    TMP DP  RH WIND       PRES   REMARKS
ASHEVILLE      MOSUNNY   83  69  62 SW10      30.05R
JEFFERSON      MOSUNNY   84  57  39 NW3       30.09S
MORGANTON      MOSUNNY   91  68  46 S3        30.01F
HICKORY        MOSUNNY   83  71  67 S10       29.98R
RUTHERFORDTON  MOSUNNY   81  73  77 CALM      29.99S
MOUNT AIRY     CLOUDY    86  73  65 E7        29.99F
BOONE          PTSUNNY   81  69  65 E5        30.10S
$$

NCZ021-022-025-041-071-084-088-282300-
CENTRAL NORTH CAROLINA

CITY           SKY/WX    TMP DP  RH WIND       PRES   REMARKS
CHARLOTTE      PTSUNNY   77  72  84 S8        29.98S
GREENSBORO     PTSUNNY   84  71  65 S12       29.97S
WINSTON-SALEM  TSTM      82  72  71 E6        29.99R
RALEIGH-DURHAM LGT RAIN  86  71  60 SE3       29.97F
FORT BRAGG     SUNNY     90  67  46 SE7       29.94S
FAYETTEVILLE   SUNNY     90  68  48 SE7       29.95R
BURLINGTON     CLOUDY    78  74  87 E6        29.98S
LAURINBURG     MOSUNNY   92  63  38 SE6       29.95R
$$

NCZ011-015-027-028-043-044-047-080-103-282300-
NORTHEASTERN NORTH CAROLINA

CITY           SKY/WX    TMP DP  RH WIND       PRES   REMARKS
ROCKY MT-WILSO CLOUDY    86  69  56 CALM      29.97S
GREENVILLE     CLOUDY    88  70  55 SE6       29.98F
WASHINGTON     SUNNY     85  69  58 E9        29.98S
ELIZABETH CITY CLOUDY    84  70  62 SE9       29.97F
MANTEO         SUNNY     82  69  64 S8        29.99F
CAPE HATTERAS  SUNNY     85  70  60 SE8       29.99S
$$

NCZ078-087-090-091-093-098-101-282300-
SOUTHEASTERN NORTH CAROLINA

CITY           SKY/WX    TMP DP  RH WIND       PRES   REMARKS
LUMBERTON      SUNNY     92  66  42 S7        29.94S
GOLDSBORO      SUNNY     88  73  60 SE5       29.94S HX  95
KINSTON        SUNNY     88  70  55 SE6       29.97F
KENANSVILLE    SUNNY     86  67  53 CALM      29.98R
NEW BERN       SUNNY     87  68  52 SE10      29.98F
CHERRY POINT   MOSUNNY   86  68  54 SE7       29.98F
BEAUFORT       SUNNY     84  71  65 E8        29.97F
JACKSONVILLE   SUNNY     85  70  60 SE12      29.97S
WILMINGTON     SUNNY     84  69  60 E7        29.97S
$$




USA.gov is the U.S. government's official web portal to all federal, state and local government web resources and services.